Vertical_Velocity
-0 -1 -1 -0 -2 -0 -3 -2 3 1 2 -1 5 -0 -2 -1 3 2 14 12 8 -3 2 3 1 -3 5 8 -1 -2 6 0 -2 1 4 2 -2 3 -5 -6 4 -1 2 10 -5
-3 -1 2 -0 -1 -3 -4 -2 -2 -3 -1 6 7 -3 0 -1 7 4 3 3 4 -3 0 -1 1 -2 2 3 1 5 4 -4 -1 1 -1 -2 -3 -3 1 2 4 1 -0 -1 -1
1 -0 -2 0 -0 -0 -2 -5 0 -1 6 2 -0 -4 0 2 7 7 0 -1 8 5 2 3 6 -2 4 1 0 -1 -1 1 0 -1 1 -2 5 0 0 4 -3 -4 -0 0 1
-1 -4 1 -2 -1 3 1 -11 1 1 4 5 0 -1 1 2 3 -1 -7 -3 -10 2 -3 6 9 10 2 1 -1 1 -1 0 0 -2 3 -1 -1 2 1 4 0 2 -2 -1 0
-3 -2 -1 -0 -1 0 -8 -3 8 3 -1 0 -1 4 -1 9 4 -2 4 -7 -3 -1 -2 -2 2 0 -2 -2 1 -1 1 -0 1 -1 3 -3 1 -0 1 -2 3 1 -0 1 1
-1 -0 1 8 -3 -7 -5 4 3 1 5 -2 -2 3 7 4 -3 1 -12 -2 8 -0 2 5 -9 -2 2 -3 2 -2 -1 1 2 1 -1 -2 1 3 2 -0 -0 -0 0 -1 -0
-5 2 0 -1 -1 -0 6 1 8 -12 8 7 15 3 11 2 -0 -5 -11 -0 4 4 -0 -0 18 -5 -5 2 -0 -2 -3 2 2 1 1 1 4 -1 -1 -0 0 0 0 0 -1
-7 2 -3 0 -2 2 1 2 13 3 15 4 13 1 -1 -1 5 5 1 -9 -5 6 15 1 7 -3 14 1 3 1 2 1 4 0 1 5 -3 3 -1 -1 -0 -0 1 -0 1
-6 -1 2 -5 1 2 0 4 2 2 -2 4 -1 -11 4 -3 -2 12 -2 9 -10 7 -1 -0 10 -1 6 -1 3 6 -1 2 5 -0 1 5 2 3 -0 0 0 -0 0 -0 2
-6 -4 2 -1 -3 -4 -2 -1 1 -2 0 -7 1 -2 -1 1 5 -4 2 2 -5 2 3 -1 2 -0 6 4 -6 -2 2 3 -1 2 2 2 -1 1 -1 1 -2 -0 1 -2 0
-1 -8 3 -0 -1 3 -3 -3 17 -18 -20 15 13 3 1 6 25 2 -1 -5 -6 14 -1 3 3 -3 -6 -3 -0 -3 -1 -2 3 1 3 -2 -1 -2 -1 2 0 -1 0 1 -2
0 -2 -5 1 5 2 -2 -6 -1 -3 -4 -3 13 1 -2 -7 -5 -7 -10 -6 5 -2 4 11 0 3 -0 0 -1 2 -1 4 3 0 4 0 -5 -3 -0 -5 -4 -2 -1 -0 3
-0 -0 -5 -3 2 -8 -3 -1 0 -3 -1 -0 -2 -2 1 2 3 -5 -4 1 -5 2 0 -6 7 0 -1 2 2 1 -3 0 -4 1 1 2 -2 2 -2 3 2 -0 -0 3 2
2 0 -1 -0 -6 -2 -5 7 -1 -1 -1 1 -5 -3 -4 -0 -4 -3 -2 0 4 -6 -3 -1 2 -2 0 -1 0 -1 1 -1 -0 2 2 3 -2 1 -0 0 1 -1 -2 -2 -3
5 -2 -0 5 -3 2 -8 1 -5 1 -1 -12 -3 -5 -5 3 -4 -5 -7 4 -1 -1 0 9 1 1 -2 3 1 1 -1 -2 -1 -0 1 3 1 0 0 1 -0 0 -1 1 -1
1 -0 -5 5 -11 -5 1 -0 -3 6 1 -1 1 0 -0 2 1 3 -3 -4 4 -10 -0 3 0 -2 3 3 -1 -0 -0 -0 -0 -0 2 2 3 -4 2 2 1 -0 2 -1 -0
1 -2 -2 7 -2 -0 -1 -4 1 -4 5 -1 0 -1 -1 1 2 -2 1 1 -0 -5 -2 1 3 1 1 -4 1 2 3 -0 1 -2 1 0 4 -3 2 1 0 1 1 1 0
0 -6 1 10 -4 2 -4 6 -10 2 2 1 1 1 -5 -1 4 1 1 1 -1 -2 -2 -2 4 1 0 4 -0 1 1 0 -2 -1 1 1 -2 5 1 -0 -1 -0 -1 -2 -1
-3 -4 1 -5 2 3 3 -5 3 -0 -1 -1 4 -2 2 0 -2 -1 -1 -0 1 2 -3 -2 2 2 -1 0 6 5 3 3 1 1 2 -2 -1 2 -0 -1 0 1 -1 -0 -0
3 -2 1 3 -6 -2 -3 -0 1 -0 -0 2 -0 3 -1 1 2 -1 -1 3 1 0 1 5 -2 0 2 2 2 6 3 6 1 -0 0 1 -0 1 -1 0 1 0 0 1 -0
-3 4 -4 -2 4 6 -1 3 0 -0 1 4 1 -1 0 -0 0 1 3 5 0 1 -0 -1 -6 7 3 1 -2 3 2 2 4 1 2 1 7 3 1 1 1 1 1 -1 -2
-3 1 1 -4 2 0 -0 -2 -3 0 -0 1 1 -1 -0 0 -0 -1 -0 2 -0 0 1 2 -1 -0 1 2 1 2 -0 -0 4 2 1 3 5 0 1 1 -0 0 -0 -0 1
5 -1 -3 -1 -1 1 2 1 2 -0 0 0 0 0 0 -0 2 -1 0 3 -1 -0 3 3 3 1 5 6 4 2 -1 -0 1 1 -3 3 8 1 0 1 1 -1 -2 -1 -1
2 0 1 -1 -3 -1 0 1 2 -2 1 -0 1 0 1 0 -0 1 1 1 -1 0 -1 1 0 3 0 4 -1 2 1 0 1 2 -1 -5 5 4 1 -0 -2 -2 -2 -1 -0
-2 1 -1 1 3 0 0 0 -0 1 0 -1 1 1 1 0 1 0 1 3 1 -2 0 3 1 -1 -0 0 0 0 -1 -0 3 -6 2 2 -0 -1 1 2 1 -0 0 -1 -0
5 4 -4 0 -1 1 1 2 -1 3 2 2 1 1 -0 0 4 -0 -2 -0 -1 3 0 0 2 -0 -1 0 1 1 -0 0 -0 -1 2 2 -7 2 -1 -0 -1 -0 -0 -1 -0
1 -1 -2 -1 -0 2 2 1 0 -0 1 1 -0 -0 -1 4 0 1 -1 -0 -0 -0 -0 0 -1 0 0 0 0 3 -7 -2 -2 0 -1 3 -9 0 -3 -1 -0 -2 1 2 0
Height
1479 1476 1471 1467 1463 1460 1459 1457 1456 1457 1458 1460 1463 1466 1468 1471 1474 1479 1481 1483 1487 1487 1489 1493 1495 1498 1502 1503 1504 1505 1499 1493 1489 1492 1498 1506 1510 1514 1516 1520 1524 1526 1527 1531 1534
1479 1475 1471 1467 1463 1460 1458 1456 1455 1454 1455 1458 1461 1464 1467 1470 1474 1477 1480 1478 1483 1486 1489 1492 1495 1497 1501 1501 1504 1502 1495 1488 1491 1493 1499 1506 1508 1515 1517 1521 1525 1527 1529 1531 1534
1478 1475 1471 1467 1463 1460 1457 1454 1452 1453 1453 1456 1460 1463 1466 1470 1475 1475 1476 1476 1478 1485 1490 1493 1495 1497 1499 1501 1502 1501 1497 1498 1503 1503 1501 1506 1509 1514 1514 1519 1522 1526 1529 1532 1536
1478 1475 1471 1468 1463 1459 1456 1452 1450 1451 1453 1456 1458 1461 1465 1469 1472 1471 1473 1477 1477 1481 1488 1491 1493 1494 1495 1497 1501 1503 1505 1503 1508 1507 1506 1511 1513 1515 1516 1521 1523 1525 1529 1533 1536
1478 1475 1472 1468 1464 1459 1453 1450 1450 1451 1452 1454 1457 1460 1464 1470 1472 1470 1471 1476 1478 1482 1486 1489 1491 1492 1491 1494 1501 1501 1507 1510 1509 1510 1511 1514 1516 1516 1520 1523 1525 1527 1530 1533 1535
1478 1475 1472 1469 1464 1460 1456 1453 1452 1451 1452 1453 1456 1460 1464 1467 1470 1469 1473 1476 1480 1483 1486 1488 1488 1490 1491 1495 1497 1502 1507 1511 1511 1512 1514 1516 1519 1519 1522 1523 1525 1527 1529 1532 1534
1479 1476 1473 1470 1467 1463 1459 1455 1449 1448 1450 1453 1457 1461 1464 1469 1469 1471 1475 1477 1477 1482 1486 1488 1490 1492 1494 1498 1502 1505 1509 1512 1514 1513 1516 1516 1520 1518 1520 1523 1525 1527 1529 1530 1532
1480 1477 1475 1472 1469 1466 1463 1459 1456 1454 1453 1453 1458 1462 1467 1469 1469 1472 1474 1479 1479 1481 1486 1488 1491 1494 1491 1497 1502 1502 1505 1509 1515 1514 1517 1519 1507 1513 1520 1522 1524 1526 1528 1528 1529
1481 1478 1476 1473 1472 1470 1467 1464 1462 1461 1460 1461 1462 1462 1469 1471 1471 1472 1476 1479 1478 1481 1484 1489 1493 1493 1496 1492 1499 1501 1505 1501 1516 1517 1516 1518 1506 1514 1519 1521 1522 1524 1526 1527 1528
1482 1479 1476 1475 1473 1472 1471 1469 1467 1465 1465 1464 1465 1468 1470 1474 1473 1473 1477 1477 1477 1481 1485 1489 1490 1489 1490 1488 1497 1496 1500 1502 1508 1516 1517 1514 1510 1514 1517 1519 1519 1521 1523 1524 1526
1483 1480 1478 1475 1472 1473 1473 1471 1472 1473 1469 1471 1471 1470 1472 1476 1477 1476 1475 1475 1478 1481 1481 1486 1487 1486 1483 1484 1484 1488 1495 1501 1511 1518 1516 1512 1510 1506 1512 1516 1517 1517 1518 1520 1523
1484 1482 1480 1477 1475 1473 1473 1472 1473 1477 1477 1472 1471 1471 1473 1473 1477 1478 1480 1482 1478 1475 1481 1488 1487 1493 1492 1492 1490 1490 1491 1504 1517 1518 1516 1510 1509 1504 1505 1508 1511 1513 1514 1516 1520
1486 1484 1483 1480 1479 1478 1476 1476 1476 1476 1478 1480 1479 1478 1479 1480 1482 1487 1487 1483 1478 1479 1478 1486 1495 1499 1494 1491 1490 1490 1492 1507 1515 1516 1516 1513 1503 1497 1497 1500 1504 1508 1510 1513 1515
1488 1487 1485 1483 1483 1480 1477 1476 1476 1475 1476 1489 1486 1486 1485 1484 1486 1485 1485 1485 1476 1477 1485 1496 1502 1498 1495 1500 1498 1501 1505 1507 1510 1509 1509 1512 1508 1491 1490 1498 1503 1506 1508 1510 1512
1488 1487 1485 1482 1482 1481 1480 1478 1477 1477 1469 1493 1489 1489 1487 1488 1490 1488 1487 1485 1485 1487 1490 1505 1500 1498 1502 1508 1501 1507 1509 1509 1507 1508 1510 1511 1518 1485 1494 1494 1495 1500 1504 1507 1510
1488 1486 1484 1481 1481 1479 1477 1477 1478 1478 1483 1495 1494 1492 1488 1485 1487 1490 1489 1490 1490 1489 1493 1502 1507 1508 1510 1508 1506 1510 1510 1512 1509 1510 1518 1515 1514 1489 1486 1493 1498 1502 1502 1507 1509
1488 1485 1481 1481 1484 1477 1477 1477 1477 1480 1503 1500 1496 1490 1487 1487 1487 1487 1487 1488 1486 1499 1504 1501 1508 1513 1511 1509 1513 1511 1509 1526 1524 1525 1514 1523 1520 1486 1492 1498 1500 1503 1504 1507 1508
1489 1485 1483 1481 1480 1477 1479 1478 1481 1497 1497 1498 1494 1491 1487 1486 1490 1488 1484 1489 1489 1485 1495 1506 1521 1514 1517 1514 1509 1513 1514 1512 1521 1512 1507 1526 1514 1490 1498 1501 1502 1505 1505 1506 1507
1489 1487 1483 1481 1480 1478 1482 1483 1493 1492 1494 1492 1492 1490 1489 1489 1487 1487 1490 1493 1495 1493 1494 1504 1522 1518 1519 1516 1517 1516 1516 1519 1515 1516 1510 1495 1496 1493 1497 1498 1502 1504 1505 1505 1506
1489 1488 1485 1483 1480 1480 1482 1490 1493 1495 1497 1496 1492 1488 1489 1492 1487 1484 1488 1497 1496 1497 1495 1498 1516 1517 1521 1520 1520 1517 1519 1517 1516 1519 1508 1496 1497 1493 1502 1502 1501 1503 1505 1505 1506
1487 1489 1488 1485 1482 1483 1492 1495 1496 1498 1498 1496 1490 1491 1491 1492 1486 1487 1493 1499 1498 1500 1498 1496 1499 1520 1519 1516 1511 1519 1515 1515 1510 1510 1503 1493 1490 1495 1499 1502 1502 1504 1506 1506 1505
1490 1490 1489 1488 1489 1489 1494 1494 1497 1497 1498 1497 1497 1493 1492 1494 1490 1491 1493 1496 1501 1501 1497 1501 1499 1511 1511 1517 1518 1515 1509 1504 1504 1510 1508 1507 1496 1498 1500 1503 1504 1505 1505 1504 1503
1491 1491 1490 1488 1490 1491 1496 1496 1495 1494 1494 1495 1494 1495 1497 1496 1497 1497 1498 1505 1505 1503 1502 1503 1500 1512 1516 1518 1518 1516 1510 1509 1512 1512 1507 1501 1493 1499 1501 1501 1502 1503 1503 1502 1501
1492 1491 1492 1491 1491 1489 1491 1493 1496 1498 1497 1496 1495 1495 1495 1497 1497 1499 1502 1507 1507 1507 1508 1507 1501 1501 1499 1504 1501 1509 1508 1511 1511 1512 1497 1498 1493 1497 1498 1500 1501 1502 1502 1501 1500
1493 1494 1494 1491 1492 1493 1493 1493 1494 1494 1496 1496 1494 1494 1493 1495 1496 1500 1502 1506 1508 1509 1508 1507 1505 1512 1506 1508 1509 1506 1507 1509 1511 1505 1503 1496 1499 1495 1499 1501 1502 1502 1500 1499 1497
1495 1494 1495 1494 1495 1494 1495 1494 1495 1497 1498 1497 1496 1498 1497 1494 1498 1497 1499 1499 1500 1508 1507 1508 1508 1511 1514 1511 1511 1509 1505 1503 1506 1504 1503 1501 1499 1497 1501 1501 1501 1500 1499 1497 1494
1493 1494 1494 1496 1495 1493 1492 1494 1495 1497 1500 1499 1497 1497 1498 1503 1504 1504 1504 1504 1503 1504 1505 1507 1509 1510 1502 1510 1509 1503 1495 1497 1499 1499 1500 1502 1497 1498 1500 1501 1501 1497 1497 1494 1492